LRFT Weather Reports


time (UTC)temp
C
wind
direction
speed
KPH
gust
KPH
rain 1hr
cm
rain 24hr
cm
rain mn
cm
humidity
%
barometer
mb
20260831143400 31 120 32.2 0.0 0.00 0.00 0.00 25 1017.0
20260831141900 31 120 32.2 0.0 0.00 0.00 0.00 25 1017.0
20260831140407 31 120 32.2 0.0 0.00 0.00 0.00 25 1017.0
20260831134900 31 140 22.5 0.0 0.00 0.00 0.00 24 1017.0
20260831133401 31 140 22.5 0.0 0.00 0.00 0.00 24 1017.0
20260831131900 31 140 22.5 0.0 0.00 0.00 0.00 24 1017.0
20260831130401 31 140 22.5 0.0 0.00 0.00 0.00 24 1017.0
20260831124917 32 90 22.5 0.0 0.00 0.00 0.00 22 1017.0
20260831123400 32 90 22.5 0.0 0.00 0.00 0.00 22 1017.0
20260831121900 32 90 22.5 0.0 0.00 0.00 0.00 22 1017.0
20260831120400 -17 0.0 0.0 0.00 0.00 0.00
20260831114900 31 150 17.7 0.0 0.00 0.00 0.00 25 1018.0
20260831113400 31 150 17.7 0.0 0.00 0.00 0.00 25 1018.0
20260831111920 31 150 17.7 0.0 0.00 0.00 0.00 25 1018.0
20260831110359 -17 0.0 0.0 0.00 0.00 0.00
20260831104900 30 90 17.7 0.0 0.00 0.00 0.00 31 1018.0
20260831103400 30 90 17.7 0.0 0.00 0.00 0.00 31 1018.0
20260831101900 30 90 17.7 0.0 0.00 0.00 0.00 31 1018.0
20260831100359 30 90 17.7 0.0 0.00 0.00 0.00 31 1018.0
20260831094859 28 90 17.7 0.0 0.00 0.00 0.00 31 1018.0
20260831093521 -17 0.0 0.0 0.00 0.00 0.00
20260831091900 28 90 17.7 0.0 0.00 0.00 0.00 31 1018.0
20260831090400 28 90 17.7 0.0 0.00 0.00 0.00 31 1018.0
20260831084859 -17 0.0 0.0 0.00 0.00 0.00
20260831083359 -17 0.0 0.0 0.00 0.00 0.00
20260831082022 -17 0.0 0.0 0.00 0.00 0.00
20260831080359 -17 0.0 0.0 0.00 0.00 0.00
20260831074923 -17 0.0 0.0 0.00 0.00 0.00
20260831073400 -17 0.0 0.0 0.00 0.00 0.00
20260831071929 -17 0.0 0.0 0.00 0.00 0.00
20260831070401 -17 0.0 0.0 0.00 0.00 0.00
20260831064859 22 4.8 0.0 0.00 0.00 0.00 73 1019.0
20260831063359 22 4.8 0.0 0.00 0.00 0.00 73 1019.0
20260831061901 22 4.8 0.0 0.00 0.00 0.00 73 1019.0
20260831060400 22 4.8 0.0 0.00 0.00 0.00 73 1019.0
20260831054900 15 4.8 0.0 0.00 0.00 0.00 100 1018.0
20260831053359 15 4.8 0.0 0.00 0.00 0.00 100 1018.0
20260831051900 15 4.8 0.0 0.00 0.00 0.00 100 1018.0
20260831050359 -17 0.0 0.0 0.00 0.00 0.00
20260831044901 15 4.8 0.0 0.00 0.00 0.00 100 1018.0
20260831043404 15 4.8 0.0 0.00 0.00 0.00 100 1018.0
20260831041900 15 4.8 0.0 0.00 0.00 0.00 100 1018.0
20260831040359 15 4.8 0.0 0.00 0.00 0.00 100 1018.0
20260831034900 15 130 4.8 0.0 0.00 0.00 0.00 100 1018.0
20260831033400 15 130 4.8 0.0 0.00 0.00 0.00 100 1018.0
20260831031900 15 130 4.8 0.0 0.00 0.00 0.00 100 1018.0
20260831030400 15 130 4.8 0.0 0.00 0.00 0.00 100 1018.0
20260831024859 16 100 8.0 0.0 0.00 0.00 0.00 94 1018.0
20260831023407 16 100 8.0 0.0 0.00 0.00 0.00 94 1018.0
20260831021859 -17 0.0 0.0 0.00 0.00 0.00
20260831020401 -17 0.0 0.0 0.00 0.00 0.00
20260831014856 17 120 9.7 0.0 0.00 0.00 0.00 83 1018.0
20260831013359 17 120 9.7 0.0 0.00 0.00 0.00 83 1018.0
20260831011900 17 120 9.7 0.0 0.00 0.00 0.00 83 1018.0
20260831010359 17 120 9.7 0.0 0.00 0.00 0.00 83 1018.0
20260831004900 17 120 9.7 0.0 0.00 0.00 0.00 83 1018.0
20260831003359 17 110 12.9 0.0 0.00 0.00 0.00 73 1018.0
20260831001859 17 110 12.9 0.0 0.00 0.00 0.00 73 1018.0
20260831000359 17 110 12.9 0.0 0.00 0.00 0.00 73 1018.0
20260830234856 18 100 11.3 0.0 0.00 0.00 0.00 64 1018.0
20260830233359 18 100 11.3 0.0 0.00 0.00 0.00 64 1018.0
20260830231900 18 100 11.3 0.0 0.00 0.00 0.00 64 1018.0
20260830230400 -17 0.0 0.0 0.00 0.00 0.00
20260830224859 20 110 11.3 0.0 0.00 0.00 0.00 60 1018.0
20260830223359 20 110 11.3 0.0 0.00 0.00 0.00 60 1018.0
20260830221859 20 110 11.3 0.0 0.00 0.00 0.00 60 1018.0
20260830220400 20 110 11.3 0.0 0.00 0.00 0.00 60 1018.0
20260830214859 20 110 11.3 0.0 0.00 0.00 0.00 60 1018.0
20260830213359 21 120 9.7 0.0 0.00 0.00 0.00 53 1018.0
20260830211859 21 120 9.7 0.0 0.00 0.00 0.00 53 1018.0
20260830210359 -17 0.0 0.0 0.00 0.00 0.00
20260830204859 22 110 12.9 0.0 0.00 0.00 0.00 50 1018.0
20260830203359 22 110 12.9 0.0 0.00 0.00 0.00 50 1018.0
20260830201859 22 110 12.9 0.0 0.00 0.00 0.00 50 1018.0
20260830200359 22 110 12.9 0.0 0.00 0.00 0.00 50 1018.0
20260830194859 22 110 12.9 0.0 0.00 0.00 0.00 50 1018.0
20260830193400 22 110 12.9 0.0 0.00 0.00 0.00 50 1018.0
20260830191901 22 110 12.9 0.0 0.00 0.00 0.00 50 1018.0
20260830190401 22 110 12.9 0.0 0.00 0.00 0.00 50 1018.0
20260830184900 23 120 14.5 0.0 0.00 0.00 0.00 44 1018.0
20260830183428 23 120 14.5 0.0 0.00 0.00 0.00 44 1018.0
20260830181900 23 120 14.5 0.0 0.00 0.00 0.00 44 1018.0
20260830180400 23 120 14.5 0.0 0.00 0.00 0.00 44 1018.0
20260830174859 26 120 17.7 0.0 0.00 0.00 0.00 39 1017.0
20260830173359 26 120 17.7 0.0 0.00 0.00 0.00 39 1017.0
20260830171859 26 120 17.7 0.0 0.00 0.00 0.00 39 1017.0
20260830170400 26 120 17.7 0.0 0.00 0.00 0.00 39 1017.0
20260830164859 27 130 25.7 0.0 0.00 0.00 0.00 35 1017.0
20260830163400 27 130 25.7 0.0 0.00 0.00 0.00 35 1017.0
20260830161858 27 130 25.7 0.0 0.00 0.00 0.00 35 1017.0
20260830160400 27 130 25.7 0.0 0.00 0.00 0.00 35 1017.0
20260830154901 28 120 8.0 0.0 0.00 0.00 0.00 35 1017.0
20260830153400 28 120 8.0 0.0 0.00 0.00 0.00 35 1017.0
20260830151859 28 120 8.0 0.0 0.00 0.00 0.00 35 1017.0
20260830150402 28 120 8.0 0.0 0.00 0.00 0.00 35 1017.0
20260830144900 31 100 8.0 0.0 0.00 0.00 0.00 31 1017.0